Hourly Data Report for November 11, 2017

CARBERRY CS
MANITOBA

49°54'20.900" N
99°21'26.800" W
383.50 m
5010547
71170
WZE

Download Data

Hourly Data (November 2017)
Hourly Data Report for November 11, 2017
TIME
LST
Temp Definition
°C
Dew Point Definition
°C
Rel Hum Definition
%
Precip. Amount Definition
mm

Wind Dir Definition
10's deg

Wind Spd Definition
km/h
Visibility Definition
km
Stn Press Definition
kPa
Hmdx Definition


Wind Chill Definition


Weather Definition


00:00 -5.6 -6.8 91 0.3 15 8   96.24   -9 LegendNANA
01:00 -5.6 -6.8 91 0.0   0   96.32     LegendNANA
02:00 -7.2 -8.7 90 0.0 32 8   96.40   -11 LegendNANA
03:00 -7.8 -9.1 90 0.0 31 10   96.51   -13 LegendNANA
04:00 -7.5 -9.0 89 0.0 29 9   96.58   -12 LegendNANA
05:00 -7.0 -8.7 88 0.0 27 11   96.67   -12 LegendNANA
06:00 -6.2 -8.0 87 0.2 29 7   96.77   -10 LegendNANA
07:00 -5.7 -7.5 87 0.0 27 5   96.83   -8 LegendNANA
08:00 -5.3 -7.2 86 0.0 25 4   96.94   -7 LegendNANA
09:00 -4.8 -7.6 81 0.0 1 6   97.03   -8 LegendNANA
10:00 -4.9 -7.6 81 0.0 36 9   97.11   -9 LegendNANA
11:00 -4.7 -7.4 81 0.0 2 5   97.22   -7 LegendNANA
12:00 -4.4 -7.2 80 0.0 36 7   97.28   -8 LegendNANA
13:00 -4.4 -7.2 81 0.0 1 9   97.31   -8 LegendNANA
14:00 -4.3 -7.3 80 0.0 36 7   97.36   -7 LegendNANA
15:00 -4.3 -7.2 80 0.0 3 1   97.40   -5 LegendNANA
16:00 -4.5 -7.2 82 0.0 31 1   97.50   -5 LegendNANA
17:00 -4.9 -7.2 84 0.0 4 4   97.55   -7 LegendNANA
18:00 -5.1 -7.1 86 0.0 7 7   97.61   -8 LegendNANA
19:00 -5.1 -7.0 86 0.0 16 3   97.69   -6 LegendNANA
20:00 -4.9 -6.9 86 0.0 16 4   97.70   -7 LegendNANA
21:00 -4.8 -6.5 88 0.0 18 5   97.71   -7 LegendNANA
22:00 -4.5 -6.9 83 0.0 27 11   97.73   -9 LegendNANA
23:00 -4.7 -7.2 82 0.0 24 8   97.76   -8 LegendNANA

Notes on Data Quality.

Legend

  • E = Estimated
  • M = Missing
  • NA = Not Available*
  • [empty] = Indicates an unobserved value
Date modified: